Location: *
(46.1006°N, 1.8394°E)
Time: 01:50:56
(UTC+00:00)

Nadezhda 1 Rocket - Pass Details

Date: 20 September 2019
Orbit: 942 x 1005 km, 83.0° (Epoch: 18 October)

Event Time Altitude Azimuth Distance (km) Brightness Sun altitude
Rises 18:32:54 0° 177° (S) 3,595 6.8 -7.4°
Reaches altitude 10° 18:35:23 10° 174° (S) 2,652 6.1 -7.8°
Maximum altitude 18:41:22 65° 94° (E) 1,031 3.9 -8.8°
Drops below altitude 10° 18:47:24 10° 14° (NNE) 2,679 6.3 -9.8°
Sets 18:49:55 0° 11° (NNE) 3,635 7.0 -10.3°
